[[{"header":{"parameterUnit":"m.s-1","parameterCategory":2,"la1":30.2991,"la2":30.254,"lo1":-89.0895,"lo2":-89.0444,"dy":0.0017,"dx":0.0017,"nx":28,"ny":28,"refTime":"2024-12-04T09:00:00:Z","depth":"0","parameterNumber":2,"parameterNumberName":"U-component_of_CURRENTS"},"data":[0,0,0,0,0,0,0,0,0,0,0,0,0,0,0,0,0,0,0,0,0,0,0,0,0,0,0,0,0,0,0,0,0,0,0,0,0,0,0,0,0,0,0,0,0,0,0,0,0,0,0,0,0,0,0,0,0,0,-0.2469,-0.2469,0,-0.2459,-0.2459,-0.2459,-0.242,-0.242,-0.2419,-0.2419,-0.2375,-0.2375,-0.2374,0,0,0,0,0,0,0,0,0,0,0,0,0,-0.2441,-0.2442,-0.2469,-0.2469,-0.2469,-0.2459,-0.2459,-0.2459,-0.2421,-0.242,-0.2419,-0.2418,-0.2375,-0.2375,-0.2374,0,0,0,0,0,0,0,0,0,0,0,0,0,-0.2442,-0.2442,-0.2469,-0.2451,-0.2449,-0.246,-0.2459,-0.2459,-0.2421,-0.242,-0.2419,-0.2418,-0.2376,-0.2375,-0.2374,-0.2388,0,0,-0.2371,-0.2371,0,0,0,0,0,0,0,0,-0.2442,-0.2443,-0.2453,-0.2452,-0.245,-0.2442,-0.2434,-0.2434,-0.2421,-0.2429,-0.2419,-0.2417,-0.2397,-0.2394,-0.2391,-0.2386,-0.2384,-0.2371,-0.2371,-0.237,-0.237,0,0,0,0,0,0,0,-0.2442,-0.2443,-0.2462,-0.2454,-0.2452,-0.2439,-0.2438,-0.2433,-0.2416,-0.2428,-0.2426,-0.2429,-0.2395,-0.2392,-0.239,-0.2383,-0.2371,-0.2371,-0.237,-0.237,-0.2381,-0.2382,0,0,0,0,0,0,-0.2451,-0.2443,-0.2463,-0.2462,-0.2447,-0.2441,-0.2439,-0.2444,-0.2416,-0.2412,-0.243,-0.2428,-0.2394,-0.2391,-0.2388,-0.2405,-0.237,-0.237,-0.2369,-0.2381,-0.2381,-0.2382,0,0,0,0,0,0,-0.245,-0.2453,-0.2463,-0.2454,-0.2455,-0.2443,-0.2448,-0.2444,-0.2438,-0.2419,-0.2413,-0.2428,-0.2393,-0.239,-0.239,-0.2403,-0.2369,-0.2369,-0.238,-0.2381,-0.2382,-0.2437,0,0,0,0,0,0,-0.245,-0.2453,-0.2452,-0.2455,-0.2456,-0.2477,-0.2449,-0.2445,-0.2444,-0.244,-0.2416,-0.2411,-0.2392,-0.2392,-0.239,-0.2401,-0.2368,-0.2379,-0.238,-0.2382,-0.2434,-0.244,-0.2445,0,0,0,0,0,-0.2449,-0.246,-0.2453,-0.2455,-0.2459,-0.2478,-0.2478,-0.2463,-0.2445,-0.2452,-0.2434,-0.2411,-0.2399,-0.2392,-0.2389,-0.2401,-0.2378,-0.238,-0.2381,-0.2432,-0.2439,-0.2445,0,0,0,0,0,0,-0.2448,-0.2458,-0.2449,-0.2462,-0.2472,-0.2473,-0.2476,-0.2468,-0.246,-0.245,-0.2425,-0.242,-0.2425,-0.2408,-0.2401,-0.2408,-0.2384,-0.2385,-0.2423,-0.2429,-0.2434,-0.2438,-0.2367,0,0,0,0,0,-0.245,-0.2456,-0.2469,-0.2476,-0.2484,-0.2479,-0.2481,-0.2477,-0.2474,-0.2468,-0.2453,-0.2437,-0.2432,-0.2427,-0.2419,-0.2426,-0.2401,-0.2431,-0.2436,-0.2441,-0.2442,-0.2427,-0.2431,-0.2388,-0.2388,-0.2388,0,0,-0.245,-0.2456,-0.2458,-0.2476,-0.2477,-0.2498,-0.2477,-0.2489,-0.2501,-0.2466,-0.247,-0.2457,-0.2439,-0.2447,-0.2447,-0.2432,-0.2438,-0.2443,-0.2447,-0.2445,-0.2429,-0.2433,-0.2437,-0.239,-0.2389,-0.2389,0,0,-0.2461,-0.2462,-0.2474,-0.249,-0.2503,-0.2508,-0.2515,-0.2523,-0.2519,-0.2529,-0.2506,-0.2501,-0.2492,-0.2484,-0.2478,-0.2509,-0.2469,-0.2505,-0.2533,-0.2518,-0.2522,-0.2524,-0.249,-0.2489,-0.2505,-0.2505,-0.2506,0,-0.2459,-0.2475,-0.2482,-0.2505,-0.2516,-0.2517,-0.2539,-0.2547,-0.2551,-0.2551,-0.2536,-0.2524,-0.2511,-0.2517,-0.2529,-0.2521,-0.2499,-0.251,-0.2525,-0.2527,-0.2529,-0.2493,-0.2491,-0.2508,-0.2508,-0.2508,-0.2507,0,-0.2483,-0.2498,-0.2511,-0.2536,-0.2554,-0.2573,-0.2593,-0.2604,-0.2597,-0.2597,-0.2601,-0.2584,-0.2572,-0.2572,-0.256,-0.2569,-0.2544,-0.2536,-0.2509,-0.2536,-0.2497,-0.2494,-0.2512,-0.2511,-0.2511,-0.251,0,0,-0.2463,-0.2516,-0.2516,-0.253,-0.257,-0.2583,-0.2618,-0.2641,-0.2647,-0.2651,-0.2652,-0.2654,-0.2635,-0.2627,-0.2611,-0.2603,-0.2595,-0.2578,-0.2576,-0.2543,-0.2548,-0.2457,-0.2445,-0.259,-0.259,-0.259,-0.2513,0,-0.2472,-0.2513,-0.2542,-0.2576,-0.2596,-0.2622,-0.265,-0.2672,-0.2677,-0.2682,-0.2674,-0.2667,-0.266,-0.2646,-0.2644,-0.2607,-0.2592,-0.2616,-0.2527,-0.2524,-0.2439,-0.244,-0.2332,-0.2248,-0.251,-0.2509,-0.2509,0,-0.2474,-0.2501,-0.2538,-0.2585,-0.2596,-0.2619,-0.2648,-0.2675,-0.2699,-0.2701,-0.2705,-0.2692,-0.2688,-0.267,-0.263,-0.2645,-0.2603,-0.2573,-0.2569,-0.2463,-0.2428,-0.2264,-0.2233,-0.2205,-0.2504,-0.2505,-0.2505,0,-0.2431,-0.2492,-0.2514,-0.2532,-0.2592,-0.2607,-0.2635,-0.2669,-0.2684,-0.2704,-0.2703,-0.2704,-0.2682,-0.2656,-0.26,-0.2614,-0.2538,-0.2546,-0.2422,-0.2415,-0.2293,-0.2274,-0.2221,-0.251,-0.251,-0.2511,-0.2511,0,-0.2415,-0.2428,-0.2492,-0.25,-0.2519,-0.2576,-0.2592,-0.2622,-0.266,-0.2663,-0.2698,-0.2686,-0.2678,-0.2636,-0.2598,-0.2489,-0.2532,-0.2419,-0.2389,-0.2307,-0.2291,-0.2236,-0.2254,-0.2508,-0.2508,-0.2509,-0.2509,0,-0.2347,-0.2398,-0.2419,-0.248,-0.2495,-0.2501,-0.2558,-0.2567,-0.262,-0.2623,-0.2628,-0.2658,-0.2601,-0.257,-0.2505,-0.2457,-0.2321,-0.2329,-0.2222,-0.2181,-0.2039,-0.2064,-0.1962,-0.1911,-0.2183,-0.218,-0.2178,0,-0.2311,-0.2317,-0.2375,-0.2379,-0.2399,-0.2427,-0.2442,-0.2521,-0.2536,-0.2592,-0.258,-0.2556,-0.2493,-0.2374,-0.2294,-0.2187,-0.2194,-0.2032,-0.2042,-0.2005,-0.2012,-0.2033,-0.2001,-0.19,-0.1896,-0.1892,-0.189,0,-0.2224,-0.2246,-0.2259,-0.2276,-0.2291,-0.2312,-0.2345,-0.2357,-0.244,-0.2443,-0.2426,-0.2385,-0.2295,-0.2134,-0.2018,-0.1956,-0.1968,-0.1953,-0.1947,-0.1807,-0.1794,-0.1738,-0.1978,-0.1858,-0.1861,-0.1863,-0.1865,-0.1866,-0.2136,-0.2124,-0.2143,-0.2142,-0.2165,-0.2165,-0.2133,-0.2181,-0.2176,-0.2149,-0.2213,-0.2106,-0.2009,-0.1826,-0.1765,-0.1634,-0.1718,-0.1583,-0.162,-0.1648,-0.1585,-0.1742,-0.1574,-0.1575,-0.1576,-0.1577,-0.1578,0,-0.2008,-0.2006,-0.2006,-0.1999,-0.1966,-0.2026,-0.2033,-0.1975,-0.1912,-0.1923,-0.1867,-0.1748,-0.1583,-0.1532,-0.1402,-0.1325,-0.1321,-0.1306,-0.1328,-0.1316,-0.1463,-0.1436,-0.1191,-0.1191,-0.1191,-0.1191,-0.1191,-0.1191,-0.1941,-0.1889,-0.1891,-0.179,-0.1782,-0.1688,-0.1657,-0.1598,-0.1573,-0.1455,-0.1405,-0.141,-0.1363,-0.1352,-0.1227,-0.117,-0.1162,-0.1108,-0.1163,-0.1292,-0.1323,-0.1352,-0.133,-0.1067,-0.1067,-0.0958,-0.0958,-0.0957]},{"header":{"parameterUnit":"m.s-1","parameterCategory":2,"la1":30.2991,"la2":30.254,"lo1":-89.0895,"lo2":-89.0444,"dy":0.0017,"dx":0.0017,"nx":28,"ny":28,"refTime":"2024-12-04T09:00:00:Z","depth":"0","parameterNumber":3,"parameterNumberName":"V-component_of_CURRENTS"},"data":[0,0,0,0,0,0,0,0,0,0,0,0,0,0,0,0,0,0,0,0,0,0,0,0,0,0,0,0,0,0,0,0,0,0,0,0,0,0,0,0,0,0,0,0,0,0,0,0,0,0,0,0,0,0,0,0,0,0,-0.0475,-0.0474,0,-0.0411,-0.041,-0.0409,-0.0368,-0.0368,-0.0368,-0.0368,-0.0281,-0.0279,-0.0277,0,0,0,0,0,0,0,0,0,0,0,0,0,-0.0514,-0.0514,-0.0475,-0.0474,-0.0473,-0.0411,-0.041,-0.0409,-0.0368,-0.0368,-0.0368,-0.0368,-0.0282,-0.0279,-0.0277,0,0,0,0,0,0,0,0,0,0,0,0,0,-0.0478,-0.0514,-0.0475,-0.0446,-0.0443,-0.0411,-0.041,-0.0409,-0.0368,-0.0368,-0.0368,-0.0368,-0.0283,-0.0279,-0.0276,-0.0263,0,0,-0.0267,-0.0265,0,0,0,0,0,0,0,0,-0.048,-0.0476,-0.0451,-0.0448,-0.0444,-0.0398,-0.0392,-0.0359,-0.0368,-0.0396,-0.0368,-0.0367,-0.0319,-0.0312,-0.0301,-0.0258,-0.0255,-0.0266,-0.0264,-0.0263,-0.0262,0,0,0,0,0,0,0,-0.0483,-0.0479,-0.0449,-0.045,-0.0446,-0.042,-0.0415,-0.0385,-0.0359,-0.0394,-0.0391,-0.0385,-0.0316,-0.0304,-0.0298,-0.0253,-0.0266,-0.0264,-0.0262,-0.026,-0.0181,-0.0181,0,0,0,0,0,0,-0.0495,-0.0481,-0.0451,-0.0447,-0.0462,-0.042,-0.0414,-0.0413,-0.036,-0.0352,-0.0385,-0.0383,-0.0309,-0.0302,-0.0295,-0.0276,-0.0263,-0.026,-0.0258,-0.0181,-0.0181,-0.0181,0,0,0,0,0,0,-0.0496,-0.0493,-0.0454,-0.0463,-0.0456,-0.042,-0.0418,-0.0411,-0.04,-0.0353,-0.0345,-0.0381,-0.0309,-0.0299,-0.0271,-0.0273,-0.0259,-0.0256,-0.0181,-0.0181,-0.0181,-0.0238,0,0,0,0,0,0,-0.0497,-0.0494,-0.0498,-0.0464,-0.0456,-0.0442,-0.0418,-0.041,-0.0397,-0.0394,-0.0347,-0.0338,-0.0308,-0.0276,-0.0268,-0.0268,-0.0253,-0.0182,-0.0181,-0.0181,-0.0237,-0.024,-0.0243,0,0,0,0,0,-0.0499,-0.051,-0.0499,-0.0495,-0.0464,-0.0442,-0.0436,-0.0408,-0.0397,-0.0396,-0.0362,-0.034,-0.0267,-0.0273,-0.0264,-0.0263,-0.0182,-0.0181,-0.0181,-0.0235,-0.0239,-0.0243,0,0,0,0,0,0,-0.0529,-0.0506,-0.0493,-0.0497,-0.0474,-0.0436,-0.0434,-0.0414,-0.0386,-0.0384,-0.0339,-0.0328,-0.0303,-0.0274,-0.0282,-0.0238,-0.022,-0.0218,-0.0265,-0.0268,-0.0271,-0.0285,-0.0251,0,0,0,0,0,-0.0539,-0.0542,-0.0511,-0.0513,-0.0505,-0.047,-0.0459,-0.0441,-0.0411,-0.0399,-0.0364,-0.0326,-0.0293,-0.0275,-0.0243,-0.0221,-0.0185,-0.0212,-0.0215,-0.0218,-0.0222,-0.0172,-0.0171,-0.0179,-0.0179,-0.0179,0,0,-0.055,-0.0539,-0.0539,-0.052,-0.05,-0.0497,-0.0463,-0.0452,-0.0446,-0.0394,-0.0376,-0.0338,-0.029,-0.0265,-0.0251,-0.0241,-0.0196,-0.0218,-0.0221,-0.0222,-0.0171,-0.017,-0.017,-0.0179,-0.0179,-0.0179,0,0,-0.0581,-0.0566,-0.0581,-0.0566,-0.0544,-0.0521,-0.0521,-0.0486,-0.0467,-0.0445,-0.0404,-0.0368,-0.0321,-0.0284,-0.0261,-0.026,-0.0216,-0.0249,-0.0274,-0.0226,-0.0225,-0.0224,-0.0178,-0.0172,-0.0249,-0.0249,-0.0249,0,-0.0598,-0.0611,-0.0581,-0.059,-0.0583,-0.0537,-0.0548,-0.0521,-0.048,-0.0462,-0.0448,-0.0367,-0.033,-0.029,-0.029,-0.0268,-0.0234,-0.0268,-0.0231,-0.0229,-0.0227,-0.018,-0.0173,-0.0252,-0.0252,-0.0251,-0.0251,0,-0.064,-0.0648,-0.0654,-0.0651,-0.0637,-0.0639,-0.06,-0.0581,-0.0551,-0.0517,-0.0471,-0.0415,-0.0366,-0.0346,-0.032,-0.0283,-0.0261,-0.0244,-0.0227,-0.023,-0.018,-0.0172,-0.0256,-0.0255,-0.0254,-0.0253,0,0,-0.0681,-0.0686,-0.0688,-0.0696,-0.0671,-0.0664,-0.065,-0.0619,-0.0603,-0.0554,-0.0526,-0.0466,-0.0427,-0.0397,-0.035,-0.0306,-0.0262,-0.0275,-0.0271,-0.0238,-0.0154,-0.0109,-0.0095,-0.0239,-0.0238,-0.0237,-0.0126,0,-0.0724,-0.0764,-0.0745,-0.0768,-0.0782,-0.0734,-0.0724,-0.0686,-0.0638,-0.0596,-0.0526,-0.0483,-0.0447,-0.0422,-0.0374,-0.0285,-0.0242,-0.0293,-0.0148,-0.0144,-0.011,-0.0084,-0.0059,0.0045,-0.0117,-0.0116,-0.0115,0,-0.077,-0.079,-0.083,-0.0828,-0.0828,-0.0829,-0.0792,-0.0775,-0.07,-0.0661,-0.06,-0.0539,-0.0464,-0.0437,-0.0296,-0.033,-0.0255,-0.0186,-0.018,-0.0112,-0.0083,0.0024,0.0067,0.0161,-0.0102,-0.0103,-0.0104,0,-0.0821,-0.0844,-0.0879,-0.0881,-0.0872,-0.0872,-0.0857,-0.0797,-0.0773,-0.0697,-0.0663,-0.0569,-0.0507,-0.0408,-0.0267,-0.0283,-0.0103,-0.0105,0.0007,0.0011,0.0075,0.0083,0.0219,-0.0015,-0.0015,-0.0015,-0.0016,0,-0.0875,-0.0899,-0.0908,-0.0928,-0.0955,-0.0924,-0.0925,-0.0889,-0.0829,-0.0791,-0.0702,-0.0639,-0.0496,-0.0373,-0.0268,-0.0091,-0.0101,0.0012,0.0047,0.0056,0.0061,0.018,0.0207,-0.0011,-0.0012,-0.0013,-0.0014,0,-0.0925,-0.0934,-0.0973,-0.0981,-0.0984,-0.1002,-0.0981,-0.0971,-0.0905,-0.0849,-0.0828,-0.0679,-0.0509,-0.0356,-0.0166,-0.0077,0.0143,0.0134,0.0136,0.017,0.0341,0.0363,0.0535,0.0593,0.0265,0.0267,0.0269,0,-0.0954,-0.0984,-0.1019,-0.1044,-0.1052,-0.1067,-0.1072,-0.1021,-0.0996,-0.0862,-0.0833,-0.0658,-0.051,-0.021,-0.0021,0.0184,0.0246,0.0315,0.0285,0.0368,0.0419,0.0428,0.0464,0.0349,0.0352,0.0353,0.0355,0,-0.1003,-0.1017,-0.1049,-0.1108,-0.1131,-0.1149,-0.1144,-0.1132,-0.1047,-0.0965,-0.0814,-0.0683,-0.0383,-0.0118,0.0145,0.0262,0.0384,0.0355,0.0449,0.0507,0.0519,0.0586,0.0254,0.037,0.0368,0.0367,0.0366,0.0366,-0.1027,-0.1068,-0.1113,-0.1162,-0.1193,-0.1208,-0.1202,-0.1157,-0.1088,-0.0925,-0.0806,-0.0552,-0.0212,0.0176,0.0304,0.0568,0.0528,0.0635,0.0659,0.0663,0.0712,0.0411,0.0559,0.0559,0.0559,0.0558,0.0558,0,-0.1052,-0.1099,-0.1159,-0.1211,-0.1245,-0.1248,-0.1228,-0.1174,-0.1064,-0.0889,-0.0706,-0.0262,0.0071,0.0368,0.0728,0.0861,0.0871,0.0924,0.094,0.0964,0.0716,0.0712,0.0891,0.0891,0.0891,0.089,0.089,0.089,-0.1066,-0.1131,-0.1168,-0.1233,-0.1265,-0.1268,-0.1243,-0.1126,-0.0985,-0.0661,-0.0374,-0.015,0.0276,0.0794,0.1106,0.113,0.1224,0.1218,0.1271,0.1089,0.1063,0.1039,0.1042,0.1288,0.1289,0.1508,0.151,0.1512]}],[{"header":{"parameterUnit":"m.s-1","parameterCategory":2,"la1":30.2991,"la2":30.254,"lo1":-89.0895,"lo2":-89.0444,"dy":0.0017,"dx":0.0017,"nx":28,"ny":28,"refTime":"2024-12-04T09:00:00:Z","depth":"2","parameterNumber":2,"parameterNumberName":"U-component_of_CURRENTS"},"data":[0,0,0,0,0,0,0,0,0,0,0,0,0,0,0,0,0,0,0,0,0,0,0,0,0,0,0,0,0,0,0,0,0,0,0,0,0,0,0,0,0,0,0,0,0,0,0,0,0,0,0,0,0,0,0,0,0,0,-0.217,-0.217,0,-0.2171,-0.2171,-0.2171,-0.2145,-0.2145,-0.2144,-0.2144,-0.2116,-0.2115,-0.2115,0,0,0,0,0,0,0,0,0,0,0,0,0,-0.2138,-0.2139,-0.217,-0.217,-0.217,-0.2171,-0.2171,-0.2171,-0.2145,-0.2145,-0.2144,-0.2143,-0.2116,-0.2115,-0.2115,0,0,0,0,0,0,0,0,0,0,0,0,0,-0.2145,-0.2139,-0.217,-0.2159,-0.2158,-0.2171,-0.2171,-0.2171,-0.2145,-0.2145,-0.2144,-0.2143,-0.2116,-0.2115,-0.2115,-0.2128,0,0,-0.2114,-0.2114,0,0,0,0,0,0,0,0,-0.2145,-0.2146,-0.216,-0.216,-0.2159,-0.2159,-0.215,-0.2156,-0.2146,-0.2148,-0.2144,-0.2143,-0.2129,-0.2128,-0.2127,-0.2127,-0.2125,-0.2114,-0.2114,-0.2113,-0.2113,0,0,0,0,0,0,0,-0.2144,-0.2146,-0.2168,-0.2161,-0.216,-0.2152,-0.2152,-0.2151,-0.2141,-0.2148,-0.2146,-0.215,-0.2128,-0.2128,-0.2126,-0.2125,-0.2114,-0.2113,-0.2113,-0.2113,-0.2136,-0.2137,0,0,0,0,0,0,-0.215,-0.2146,-0.2168,-0.2169,-0.2152,-0.2154,-0.2153,-0.2158,-0.2142,-0.2139,-0.2151,-0.2149,-0.2129,-0.2127,-0.2125,-0.2147,-0.2113,-0.2113,-0.2113,-0.2135,-0.2136,-0.2137,0,0,0,0,0,0,-0.2149,-0.2152,-0.2168,-0.2159,-0.216,-0.2155,-0.2161,-0.2159,-0.2158,-0.2145,-0.2141,-0.2153,-0.2128,-0.2126,-0.2132,-0.2145,-0.2113,-0.2112,-0.2134,-0.2135,-0.2136,-0.2186,0,0,0,0,0,0,-0.2148,-0.2152,-0.2153,-0.2159,-0.2161,-0.2184,-0.2162,-0.2159,-0.2163,-0.216,-0.2145,-0.2142,-0.2127,-0.2133,-0.2132,-0.2144,-0.2112,-0.2133,-0.2135,-0.2136,-0.2183,-0.2189,-0.2193,0,0,0,0,0,-0.2147,-0.2159,-0.2153,-0.2156,-0.2165,-0.2185,-0.2186,-0.2178,-0.2164,-0.2172,-0.2162,-0.2142,-0.2142,-0.2134,-0.2132,-0.2145,-0.2132,-0.2134,-0.2136,-0.2181,-0.2188,-0.2193,0,0,0,0,0,0,-0.2146,-0.2157,-0.2152,-0.2165,-0.2177,-0.2182,-0.2187,-0.2183,-0.2181,-0.2175,-0.2156,-0.2153,-0.2163,-0.215,-0.2141,-0.2156,-0.2133,-0.2134,-0.2167,-0.2174,-0.2179,-0.2179,-0.2112,0,0,0,0,0,-0.2148,-0.2155,-0.2169,-0.2178,-0.2186,-0.2186,-0.2191,-0.219,-0.2191,-0.2189,-0.2181,-0.2171,-0.217,-0.2168,-0.2165,-0.2176,-0.2153,-0.2182,-0.2188,-0.2192,-0.2192,-0.2179,-0.2182,-0.2143,-0.2143,-0.2143,0,0,-0.2148,-0.2155,-0.2159,-0.2177,-0.2182,-0.2203,-0.2187,-0.2202,-0.2215,-0.2187,-0.2199,-0.2191,-0.2178,-0.219,-0.2193,-0.2179,-0.219,-0.2194,-0.2198,-0.2196,-0.2181,-0.2185,-0.2188,-0.2144,-0.2144,-0.2144,0,0,-0.2159,-0.2163,-0.2175,-0.2191,-0.2207,-0.2213,-0.2221,-0.2233,-0.2234,-0.2249,-0.2232,-0.2232,-0.2232,-0.2226,-0.2222,-0.2255,-0.2219,-0.2254,-0.2278,-0.2266,-0.2269,-0.2271,-0.224,-0.2239,-0.2254,-0.2254,-0.2255,0,-0.2158,-0.2174,-0.2182,-0.2204,-0.2216,-0.2222,-0.2243,-0.2254,-0.2265,-0.2268,-0.2259,-0.2258,-0.2249,-0.2259,-0.227,-0.2266,-0.2246,-0.2256,-0.2272,-0.2274,-0.2275,-0.2243,-0.2241,-0.2257,-0.2257,-0.2256,-0.2256,0,-0.2179,-0.2195,-0.2207,-0.2232,-0.2251,-0.2271,-0.2292,-0.2308,-0.2308,-0.2312,-0.2323,-0.2313,-0.2308,-0.231,-0.23,-0.231,-0.2288,-0.2281,-0.2256,-0.2282,-0.2246,-0.2244,-0.2261,-0.226,-0.2259,-0.2258,0,0,-0.2161,-0.2211,-0.2212,-0.2226,-0.2266,-0.228,-0.2316,-0.2341,-0.2351,-0.2363,-0.237,-0.2377,-0.2365,-0.236,-0.2348,-0.2341,-0.2334,-0.2319,-0.2317,-0.2286,-0.2292,-0.2207,-0.2195,-0.2331,-0.2331,-0.2331,-0.226,0,-0.2168,-0.2207,-0.2234,-0.2267,-0.2287,-0.2315,-0.2345,-0.2369,-0.2381,-0.2393,-0.239,-0.2392,-0.2387,-0.2379,-0.2377,-0.2344,-0.233,-0.2352,-0.2273,-0.227,-0.2189,-0.219,-0.2039,-0.1957,-0.2258,-0.2257,-0.2257,0,-0.217,-0.2195,-0.223,-0.2276,-0.2288,-0.2312,-0.2346,-0.2375,-0.2404,-0.2412,-0.2422,-0.2416,-0.2415,-0.2401,-0.2365,-0.2379,-0.2341,-0.2314,-0.231,-0.221,-0.2179,-0.1981,-0.1941,-0.2252,-0.2252,-0.2253,-0.2253,0,-0.213,-0.2187,-0.221,-0.2227,-0.2286,-0.2304,-0.2333,-0.2372,-0.2389,-0.2417,-0.2421,-0.2427,-0.2412,-0.2388,-0.2339,-0.2351,-0.2282,-0.2288,-0.2174,-0.2167,-0.2011,-0.1989,-0.2257,-0.2257,-0.2257,-0.2257,-0.2257,0,-0.2115,-0.2129,-0.2192,-0.22,-0.2222,-0.2278,-0.2299,-0.2332,-0.2374,-0.238,-0.242,-0.2411,-0.2409,-0.2372,-0.2336,-0.2235,-0.2276,-0.217,-0.2143,-0.2022,-0.2004,-0.2242,-0.2241,-0.2254,-0.2255,-0.2255,-0.2256,0,-0.2053,-0.2101,-0.2124,-0.2184,-0.2201,-0.2211,-0.227,-0.2281,-0.2338,-0.2346,-0.2354,-0.2387,-0.2336,-0.2313,-0.2253,-0.2207,-0.2136,-0.2089,-0.1939,-0.1895,-0.2031,-0.2034,-0.1957,-0.1954,-0.1951,-0.1948,-0.1946,0,-0.202,-0.2027,-0.2086,-0.2091,-0.2113,-0.2145,-0.2161,-0.2241,-0.2256,-0.2315,-0.2304,-0.2289,-0.2229,-0.2122,-0.2047,-0.1948,-0.2031,-0.1758,-0.1758,-0.2019,-0.2001,-0.2008,-0.2015,-0.1567,-0.1562,-0.1558,-0.1555,0,-0.1942,-0.1965,-0.1978,-0.1996,-0.2013,-0.2034,-0.2069,-0.2079,-0.216,-0.2166,-0.215,-0.2111,-0.2032,-0.1857,-0.1755,-0.1692,-0.1767,-0.167,-0.1966,-0.1673,-0.1647,-0.1631,-0.1651,-0.1518,-0.1521,-0.1524,-0.1526,-0.1528,-0.1863,-0.1852,-0.1871,-0.1872,-0.1896,-0.1892,-0.1858,-0.1902,-0.1895,-0.1865,-0.193,-0.1813,-0.1788,-0.1539,-0.1444,-0.1384,-0.1514,-0.1445,-0.146,-0.1478,-0.1452,-0.1422,-0.1245,-0.1247,-0.1249,-0.1251,-0.1252,0,-0.1746,-0.1743,-0.1743,-0.1735,-0.1701,-0.1762,-0.1762,-0.1698,-0.1628,-0.1633,-0.1578,-0.138,-0.1252,-0.1239,-0.1084,-0.1049,-0.1062,-0.1005,-0.1024,-0.1061,-0.1093,-0.105,-0.0735,-0.0734,-0.0732,-0.0731,0,0,-0.1685,-0.1634,-0.1632,-0.1531,-0.1524,-0.1429,-0.1394,-0.1326,-0.1293,-0.1178,-0.1116,-0.1171,-0.1192,-0.0962,-0.0908,-0.0793,-0.0922,-0.0752,-0.1166,-0.1225,-0.1256,-0.1343,-0.1317,0,0,0,0,0]},{"header":{"parameterUnit":"m.s-1","parameterCategory":2,"la1":30.2991,"la2":30.254,"lo1":-89.0895,"lo2":-89.0444,"dy":0.0017,"dx":0.0017,"nx":28,"ny":28,"refTime":"2024-12-04T09:00:00:Z","depth":"2","parameterNumber":3,"parameterNumberName":"V-component_of_CURRENTS"},"data":[0,0,0,0,0,0,0,0,0,0,0,0,0,0,0,0,0,0,0,0,0,0,0,0,0,0,0,0,0,0,0,0,0,0,0,0,0,0,0,0,0,0,0,0,0,0,0,0,0,0,0,0,0,0,0,0,0,0,-0.037,-0.037,0,-0.0314,-0.0314,-0.0313,-0.0277,-0.0277,-0.0277,-0.0277,-0.0199,-0.0197,-0.0195,0,0,0,0,0,0,0,0,0,0,0,0,0,-0.0404,-0.0404,-0.037,-0.037,-0.0369,-0.0314,-0.0314,-0.0313,-0.0277,-0.0277,-0.0277,-0.0277,-0.02,-0.0197,-0.0195,0,0,0,0,0,0,0,0,0,0,0,0,0,-0.0372,-0.0404,-0.0371,-0.0345,-0.0342,-0.0315,-0.0314,-0.0313,-0.0277,-0.0277,-0.0277,-0.0277,-0.02,-0.0198,-0.0195,-0.0182,0,0,-0.0186,-0.0185,0,0,0,0,0,0,0,0,-0.0374,-0.0371,-0.035,-0.0347,-0.0344,-0.0303,-0.0297,-0.0268,-0.0277,-0.0301,-0.0277,-0.0276,-0.0232,-0.0227,-0.0216,-0.0178,-0.0175,-0.0186,-0.0184,-0.0183,-0.0182,0,0,0,0,0,0,0,-0.0377,-0.0373,-0.0348,-0.0349,-0.0345,-0.0322,-0.0317,-0.0291,-0.0268,-0.0299,-0.0297,-0.0291,-0.023,-0.0219,-0.0214,-0.0174,-0.0186,-0.0183,-0.0181,-0.018,-0.011,-0.011,0,0,0,0,0,0,-0.0387,-0.0376,-0.035,-0.0346,-0.0359,-0.0322,-0.0317,-0.0316,-0.0269,-0.0262,-0.0292,-0.029,-0.0224,-0.0218,-0.0211,-0.0193,-0.0183,-0.018,-0.0178,-0.011,-0.011,-0.011,0,0,0,0,0,0,-0.0388,-0.0385,-0.0352,-0.0359,-0.0354,-0.0322,-0.0321,-0.0315,-0.0306,-0.0263,-0.0256,-0.0289,-0.0224,-0.0215,-0.019,-0.019,-0.0179,-0.0176,-0.011,-0.011,-0.011,-0.0157,0,0,0,0,0,0,-0.0389,-0.0386,-0.0391,-0.0361,-0.0354,-0.0341,-0.0321,-0.0314,-0.0303,-0.03,-0.0258,-0.0251,-0.0223,-0.0195,-0.0187,-0.0186,-0.0174,-0.011,-0.011,-0.011,-0.0156,-0.0159,-0.0161,0,0,0,0,0,-0.0391,-0.0401,-0.0392,-0.0389,-0.0361,-0.0342,-0.0336,-0.0312,-0.0303,-0.0302,-0.0273,-0.0252,-0.0188,-0.0193,-0.0184,-0.0181,-0.0111,-0.011,-0.011,-0.0155,-0.0158,-0.0161,0,0,0,0,0,0,-0.0417,-0.0397,-0.0387,-0.039,-0.037,-0.0336,-0.0334,-0.0317,-0.0293,-0.0292,-0.0252,-0.0242,-0.022,-0.0194,-0.02,-0.0159,-0.0145,-0.0143,-0.0182,-0.0185,-0.0187,-0.0199,-0.0171,0,0,0,0,0,-0.0426,-0.0429,-0.0402,-0.0404,-0.0397,-0.0367,-0.0357,-0.0341,-0.0315,-0.0305,-0.0274,-0.024,-0.0211,-0.0194,-0.0165,-0.0145,-0.0113,-0.0136,-0.0138,-0.0141,-0.0144,-0.0095,-0.0093,-0.0109,-0.0109,-0.0109,0,0,-0.0436,-0.0426,-0.0427,-0.041,-0.0393,-0.039,-0.036,-0.0351,-0.0345,-0.03,-0.0283,-0.0251,-0.0208,-0.0184,-0.0171,-0.0163,-0.012,-0.0141,-0.0143,-0.0144,-0.0094,-0.0093,-0.0091,-0.0108,-0.0108,-0.0108,0,0,-0.0462,-0.045,-0.0462,-0.045,-0.0431,-0.041,-0.0411,-0.038,-0.0363,-0.0344,-0.0308,-0.0276,-0.0235,-0.02,-0.0178,-0.0177,-0.0137,-0.0168,-0.0188,-0.014,-0.0139,-0.0137,-0.0097,-0.0091,-0.0167,-0.0167,-0.0167,0,-0.0476,-0.0487,-0.0462,-0.047,-0.0463,-0.0424,-0.0433,-0.0409,-0.0373,-0.0357,-0.0347,-0.0274,-0.0241,-0.0201,-0.0202,-0.0183,-0.0153,-0.0182,-0.0144,-0.0142,-0.0139,-0.0099,-0.0092,-0.0169,-0.0169,-0.0169,-0.0168,0,-0.051,-0.0518,-0.0524,-0.0521,-0.0508,-0.051,-0.0475,-0.0459,-0.0434,-0.0403,-0.0362,-0.0311,-0.0268,-0.0249,-0.0226,-0.0189,-0.0173,-0.0156,-0.014,-0.0141,-0.0098,-0.009,-0.0172,-0.0171,-0.0171,-0.017,0,0,-0.0547,-0.055,-0.0552,-0.056,-0.0537,-0.0532,-0.0518,-0.0489,-0.0476,-0.0431,-0.0406,-0.035,-0.0316,-0.0289,-0.0248,-0.0205,-0.0162,-0.0179,-0.0175,-0.0146,-0.0061,-0.0032,-0.002,-0.0139,-0.0138,-0.0137,-0.004,0,-0.0583,-0.0617,-0.06,-0.0621,-0.0634,-0.0592,-0.0581,-0.0546,-0.0505,-0.0468,-0.0402,-0.0365,-0.0332,-0.0311,-0.0264,-0.0185,-0.0143,-0.019,-0.0059,-0.0055,-0.0034,-0.001,-0.0023,0.0064,-0.0032,-0.003,-0.0029,0,-0.0623,-0.0641,-0.0676,-0.0676,-0.0676,-0.0677,-0.0647,-0.063,-0.0562,-0.0528,-0.0471,-0.0416,-0.0345,-0.032,-0.0189,-0.0221,-0.0151,-0.009,-0.0084,-0.0035,-0.0011,0.0051,0.0083,-0.0016,-0.0017,-0.0018,-0.0019,0,-0.0671,-0.069,-0.0723,-0.0724,-0.0717,-0.0717,-0.0705,-0.0651,-0.0632,-0.0563,-0.0536,-0.0443,-0.0391,-0.0294,-0.0167,-0.0178,-0.0018,-0.0015,0.0079,0.0082,0.0108,0.0111,0.0074,0.0074,0.0074,0.0074,0.0073,0,-0.0719,-0.0741,-0.0751,-0.077,-0.0798,-0.0769,-0.0774,-0.0742,-0.0689,-0.0661,-0.0574,-0.0522,-0.0382,-0.0271,-0.0169,-0.0012,-0.0015,0.0083,0.0114,0.0091,0.0092,0.0051,0.0047,0.0077,0.0076,0.0076,0.0075,0,-0.0767,-0.0773,-0.0812,-0.0822,-0.0826,-0.0846,-0.0832,-0.0827,-0.0769,-0.0728,-0.0708,-0.0572,-0.042,-0.0272,-0.0094,-0.0009,0.0131,0.0184,0.0146,0.0171,0.0195,0.0188,0.0293,0.0295,0.0297,0.0298,0.0299,0,-0.0794,-0.0822,-0.0859,-0.0886,-0.0895,-0.0915,-0.0924,-0.0878,-0.0862,-0.075,-0.0729,-0.0573,-0.0444,-0.0169,0.001,0.0204,0.0194,0.0292,0.0269,0.0201,0.022,0.021,0.02,0.0285,0.0286,0.0287,0.0288,0,-0.0843,-0.0858,-0.089,-0.0952,-0.0979,-0.1001,-0.1005,-0.1001,-0.0929,-0.0862,-0.0735,-0.062,-0.0351,-0.012,0.0124,0.0231,0.0258,0.0314,0.0274,0.0227,0.02,0.0217,0.0206,0.0295,0.0294,0.0293,0.0293,0.0293,-0.0871,-0.0911,-0.0957,-0.101,-0.1045,-0.107,-0.107,-0.1037,-0.0985,-0.0848,-0.0745,-0.0523,-0.0331,0.0049,0.0204,0.0352,0.0343,0.0377,0.0372,0.0366,0.0343,0.032,0.0433,0.0433,0.0433,0.0433,0.0433,0,-0.0902,-0.0947,-0.1008,-0.1065,-0.1104,-0.1109,-0.1104,-0.1059,-0.0972,-0.0821,-0.0663,-0.0396,-0.0143,0.0063,0.0304,0.0427,0.0405,0.0445,0.0387,0.038,0.0374,0.0348,0.0441,0.0442,0.0442,0.0442,0,0,-0.092,-0.0985,-0.1019,-0.1093,-0.1129,-0.1142,-0.1128,-0.1027,-0.0902,-0.0716,-0.0535,-0.0339,-0.01,0.0067,0.0218,0.0342,0.0325,0.0352,0.0334,0.024,0.0233,0.0327,0.0279,0,0,0,0,0]}],[{"header":{"parameterUnit":"m.s-1","parameterCategory":2,"la1":30.2991,"la2":30.254,"lo1":-89.0895,"lo2":-89.0444,"dy":0.0017,"dx":0.0017,"nx":28,"ny":28,"refTime":"2024-12-04T09:00:00:Z","depth":"4","parameterNumber":2,"parameterNumberName":"U-component_of_CURRENTS"},"data":[0,0,0,0,0,0,0,0,0,0,0,0,0,0,0,0,0,0,0,0,0,0,0,0,0,0,0,0,0,0,0,0,0,0,0,0,0,0,0,0,0,0,0,0,0,0,0,0,0,0,0,0,0,0,0,0,0,0,-0.1553,-0.1554,0,-0.1601,-0.1601,-0.1602,-0.1634,-0.1634,-0.1634,-0.1635,-0.168,-0.1681,-0.1682,0,0,0,0,0,0,0,0,0,0,0,0,0,-0.1487,-0.1488,-0.1553,-0.1554,-0.1555,-0.1601,-0.1601,-0.1602,-0.1634,-0.1634,-0.1635,-0.1635,-0.168,-0.1681,-0.1682,0,0,0,0,0,0,0,0,0,0,0,0,0,-0.1522,-0.1488,-0.1553,-0.1577,-0.158,-0.1601,-0.1601,-0.1602,-0.1634,-0.1634,-0.1635,-0.1635,-0.168,-0.1681,-0.1682,-0.168,0,0,-0.1686,-0.1687,0,0,0,0,0,0,0,0,-0.152,-0.1524,-0.1573,-0.1575,-0.1579,-0.1613,-0.1594,-0.1628,-0.1634,-0.1612,-0.1635,-0.1635,-0.1658,-0.1661,-0.1667,-0.1682,-0.1684,-0.1686,-0.1687,-0.1688,-0.1688,0,0,0,0,0,0,0,-0.1517,-0.1522,-0.1571,-0.1574,-0.1577,-0.1584,-0.159,-0.1601,-0.1631,-0.1614,-0.1617,-0.1624,-0.1659,-0.1666,-0.1669,-0.1685,-0.1686,-0.1688,-0.1688,-0.1689,-0.1765,-0.1766,0,0,0,0,0,0,-0.1514,-0.152,-0.1569,-0.1572,-0.1551,-0.1585,-0.1591,-0.16,-0.1631,-0.1636,-0.1623,-0.1625,-0.1663,-0.1667,-0.167,-0.1732,-0.1688,-0.1689,-0.169,-0.1763,-0.1765,-0.1766,0,0,0,0,0,0,-0.1512,-0.1518,-0.1568,-0.1548,-0.1555,-0.1586,-0.1596,-0.1601,-0.1633,-0.1638,-0.1643,-0.1653,-0.1664,-0.1668,-0.1707,-0.1731,-0.169,-0.1691,-0.1762,-0.1764,-0.1765,-0.1815,0,0,0,0,0,0,-0.151,-0.1517,-0.1534,-0.1548,-0.1556,-0.1599,-0.1596,-0.1602,-0.1635,-0.1639,-0.1664,-0.1668,-0.1665,-0.1705,-0.1708,-0.1733,-0.1692,-0.176,-0.1763,-0.1765,-0.1812,-0.1818,-0.1824,0,0,0,0,0,-0.1507,-0.1527,-0.1534,-0.1541,-0.1574,-0.16,-0.1606,-0.1627,-0.1637,-0.1657,-0.1677,-0.1668,-0.1721,-0.1707,-0.1711,-0.1736,-0.1759,-0.1762,-0.1765,-0.1809,-0.1817,-0.1824,0,0,0,0,0,0,-0.151,-0.1532,-0.1541,-0.1567,-0.1591,-0.1607,-0.1631,-0.1643,-0.1674,-0.1684,-0.1686,-0.1691,-0.1733,-0.1729,-0.1714,-0.1764,-0.1738,-0.1741,-0.1771,-0.1778,-0.1784,-0.1777,-0.1693,0,0,0,0,0,-0.1516,-0.1537,-0.1558,-0.1582,-0.1596,-0.1618,-0.1635,-0.1651,-0.1674,-0.169,-0.1708,-0.1726,-0.1742,-0.1757,-0.177,-0.1801,-0.1778,-0.1818,-0.1824,-0.183,-0.1827,-0.1819,-0.1824,-0.1775,-0.1775,-0.1775,0,0,-0.1525,-0.1539,-0.1553,-0.1584,-0.1604,-0.1631,-0.1631,-0.1667,-0.1694,-0.1689,-0.1741,-0.1751,-0.1755,-0.179,-0.1807,-0.1794,-0.1832,-0.1833,-0.1837,-0.1832,-0.1823,-0.1827,-0.1831,-0.1777,-0.1777,-0.1776,0,0,-0.1542,-0.1566,-0.1587,-0.161,-0.1645,-0.1659,-0.1675,-0.1708,-0.1732,-0.1775,-0.1777,-0.1804,-0.1836,-0.1841,-0.1845,-0.1892,-0.1864,-0.1902,-0.1929,-0.1922,-0.1925,-0.1928,-0.1902,-0.1902,-0.1905,-0.1905,-0.1905,0,-0.1553,-0.1578,-0.1599,-0.1624,-0.1647,-0.1674,-0.1703,-0.173,-0.1774,-0.1793,-0.1802,-0.1848,-0.1856,-0.1882,-0.1901,-0.1904,-0.189,-0.1901,-0.1928,-0.1931,-0.1933,-0.1905,-0.1905,-0.1908,-0.1907,-0.1907,-0.1907,0,-0.1575,-0.1607,-0.1625,-0.1663,-0.1693,-0.1724,-0.176,-0.1798,-0.1829,-0.1848,-0.1894,-0.1907,-0.1929,-0.194,-0.1937,-0.1961,-0.1942,-0.1936,-0.1907,-0.194,-0.191,-0.1908,-0.1912,-0.1911,-0.191,-0.1909,0,0,-0.1561,-0.1627,-0.1635,-0.166,-0.1717,-0.1738,-0.1793,-0.1836,-0.1866,-0.1912,-0.1943,-0.1979,-0.1985,-0.1989,-0.1991,-0.1991,-0.1995,-0.1976,-0.1975,-0.1945,-0.1968,-0.1837,-0.1822,-0.1996,-0.1997,-0.1997,-0.1939,0,-0.1571,-0.162,-0.1654,-0.1709,-0.1736,-0.1783,-0.1826,-0.1872,-0.1909,-0.1948,-0.1969,-0.1999,-0.2003,-0.2016,-0.2021,-0.2001,-0.1994,-0.201,-0.1945,-0.1943,-0.1817,-0.1817,-0.1998,-0.1938,-0.1937,-0.1937,-0.1937,0,-0.157,-0.1605,-0.1659,-0.1725,-0.1743,-0.1784,-0.185,-0.1893,-0.1949,-0.1978,-0.2013,-0.2027,-0.2045,-0.204,-0.2023,-0.2035,-0.2007,-0.1988,-0.1985,-0.1841,-0.1808,-0.1899,-0.1934,-0.1934,-0.1934,-0.1934,-0.1935,0,-0.1527,-0.1604,-0.1647,-0.1672,-0.1753,-0.1792,-0.1838,-0.1903,-0.1935,-0.1996,-0.2015,-0.2044,-0.2052,-0.2037,-0.2005,-0.2018,-0.1966,-0.1973,-0.1826,-0.1816,-0.1931,-0.1929,-0.1951,-0.1951,-0.1951,-0.1951,-0.1951,0,-0.1502,-0.1539,-0.1636,-0.1656,-0.1707,-0.1777,-0.183,-0.188,-0.1944,-0.1961,-0.2026,-0.2025,-0.2053,-0.203,-0.2003,-0.1894,-0.1961,-0.1817,-0.1789,-0.1953,-0.1954,-0.1929,-0.1927,-0.1949,-0.1949,-0.195,-0.195,0,-0.1435,-0.1504,-0.1556,-0.1653,-0.1687,-0.1723,-0.1818,-0.1842,-0.1922,-0.1944,-0.1962,-0.201,-0.197,-0.1968,-0.1928,-0.1864,-0.1792,-0.1739,-0.19,-0.1884,-0.1649,-0.1651,-0.1564,-0.1558,-0.1554,-0.155,-0.1547,0,-0.1399,-0.1423,-0.1534,-0.1562,-0.161,-0.1679,-0.1713,-0.1814,-0.1831,-0.1907,-0.1892,-0.19,-0.1907,-0.1732,-0.1762,-0.1681,-0.1665,-0.162,-0.1648,-0.1626,-0.1608,-0.1617,-0.1625,-0.154,-0.1539,-0.1538,-0.1537,0,-0.1321,-0.1378,-0.1416,-0.1475,-0.1525,-0.1567,-0.1626,-0.1627,-0.1718,-0.1814,-0.1754,-0.1719,-0.1668,-0.1626,-0.1569,-0.1522,-0.1646,-0.1573,-0.1583,-0.161,-0.1597,-0.1586,-0.1598,-0.1521,-0.1524,-0.1525,-0.1526,0,-0.1258,-0.1266,-0.1325,-0.1358,-0.142,-0.1419,-0.1473,-0.1478,-0.151,-0.1601,-0.1574,-0.1585,-0.1639,-0.1542,-0.1493,-0.1429,-0.1413,-0.1369,-0.1389,-0.1406,-0.1382,-0.1345,-0.1152,0,0,0,0,0,-0.1182,-0.1171,-0.1198,-0.1222,-0.1278,-0.1307,-0.139,-0.1445,-0.1541,-0.1448,-0.1505,-0.1448,-0.1375,-0.1393,-0.1289,-0.1427,-0.1423,-0.1303,-0.1386,-0.1437,-0.1454,-0.1441,0,0,0,0,0,0,-0.113,-0.1149,-0.115,-0.1096,-0.1086,-0.1123,-0.1168,-0.1238,-0.1199,-0.1303,-0.1265,-0.1349,-0.1296,-0.1392,-0.1251,-0.1255,-0.1274,-0.1328,-0.1323,-0.1427,-0.1443,-0.1457,-0.145,0,0,0,0,0]},{"header":{"parameterUnit":"m.s-1","parameterCategory":2,"la1":30.2991,"la2":30.254,"lo1":-89.0895,"lo2":-89.0444,"dy":0.0017,"dx":0.0017,"nx":28,"ny":28,"refTime":"2024-12-04T09:00:00:Z","depth":"4","parameterNumber":3,"parameterNumberName":"V-component_of_CURRENTS"},"data":[0,0,0,0,0,0,0,0,0,0,0,0,0,0,0,0,0,0,0,0,0,0,0,0,0,0,0,0,0,0,0,0,0,0,0,0,0,0,0,0,0,0,0,0,0,0,0,0,0,0,0,0,0,0,0,0,0,0,-0.0248,-0.0248,0,-0.0215,-0.0215,-0.0214,-0.0194,-0.0194,-0.0194,-0.0194,-0.014,-0.0138,-0.0137,0,0,0,0,0,0,0,0,0,0,0,0,0,-0.0263,-0.0263,-0.0248,-0.0248,-0.0248,-0.0215,-0.0215,-0.0214,-0.0194,-0.0194,-0.0194,-0.0194,-0.014,-0.0139,-0.0137,0,0,0,0,0,0,0,0,0,0,0,0,0,-0.0246,-0.0263,-0.0248,-0.0234,-0.0233,-0.0215,-0.0215,-0.0214,-0.0194,-0.0194,-0.0194,-0.0194,-0.0141,-0.0139,-0.0137,-0.0125,0,0,-0.013,-0.0129,0,0,0,0,0,0,0,0,-0.0247,-0.0245,-0.0237,-0.0235,-0.0233,-0.0209,-0.02,-0.0183,-0.0195,-0.0209,-0.0194,-0.0194,-0.0161,-0.0157,-0.0151,-0.0123,-0.012,-0.013,-0.0129,-0.0128,-0.0127,0,0,0,0,0,0,0,-0.0248,-0.0246,-0.0235,-0.0236,-0.0234,-0.0218,-0.0216,-0.0196,-0.0185,-0.0207,-0.0206,-0.0203,-0.016,-0.0153,-0.015,-0.012,-0.013,-0.0128,-0.0127,-0.0126,-0.0076,-0.0076,0,0,0,0,0,0,-0.0255,-0.0248,-0.0236,-0.0234,-0.024,-0.0218,-0.0216,-0.0217,-0.0186,-0.0181,-0.0203,-0.0202,-0.0157,-0.0152,-0.0148,-0.0136,-0.0128,-0.0126,-0.0125,-0.0076,-0.0076,-0.0076,0,0,0,0,0,0,-0.0255,-0.0254,-0.0237,-0.024,-0.0237,-0.0219,-0.0219,-0.0216,-0.0214,-0.0183,-0.0178,-0.0205,-0.0157,-0.0151,-0.0135,-0.0133,-0.0125,-0.0123,-0.0076,-0.0076,-0.0076,-0.011,0,0,0,0,0,0,-0.0256,-0.0255,-0.0261,-0.0241,-0.0237,-0.0233,-0.0219,-0.0215,-0.0212,-0.0211,-0.0183,-0.0177,-0.0156,-0.0138,-0.0133,-0.013,-0.0121,-0.0076,-0.0076,-0.0076,-0.0109,-0.0111,-0.0113,0,0,0,0,0,-0.0257,-0.0265,-0.0262,-0.026,-0.0245,-0.0233,-0.023,-0.0216,-0.0212,-0.0213,-0.0194,-0.0178,-0.0133,-0.0137,-0.013,-0.0127,-0.0077,-0.0076,-0.0076,-0.0108,-0.0111,-0.0113,0,0,0,0,0,0,-0.0274,-0.0263,-0.0259,-0.0264,-0.0252,-0.023,-0.0231,-0.0221,-0.0208,-0.0209,-0.0179,-0.0172,-0.0158,-0.0138,-0.0143,-0.0112,-0.0101,-0.01,-0.0128,-0.013,-0.0132,-0.014,-0.012,0,0,0,0,0,-0.0281,-0.0287,-0.027,-0.0275,-0.0271,-0.0253,-0.0248,-0.024,-0.0223,-0.0217,-0.0196,-0.0173,-0.0151,-0.0139,-0.0118,-0.0103,-0.0076,-0.0096,-0.0098,-0.0099,-0.0101,-0.0057,-0.0056,-0.0076,-0.0076,-0.0076,0,0,-0.0289,-0.0285,-0.0287,-0.0279,-0.027,-0.0269,-0.025,-0.0247,-0.0244,-0.0213,-0.0204,-0.0181,-0.0149,-0.0132,-0.0123,-0.0116,-0.0081,-0.0099,-0.0101,-0.0102,-0.0057,-0.0055,-0.0053,-0.0076,-0.0076,-0.0076,0,0,-0.0307,-0.0304,-0.0315,-0.0308,-0.03,-0.0287,-0.0289,-0.027,-0.026,-0.0249,-0.0224,-0.02,-0.0172,-0.0144,-0.0127,-0.0126,-0.0095,-0.0121,-0.0134,-0.0092,-0.009,-0.0088,-0.0057,-0.0052,-0.0119,-0.0119,-0.0119,0,-0.0319,-0.033,-0.0315,-0.0322,-0.0321,-0.0298,-0.0306,-0.029,-0.0268,-0.0258,-0.0253,-0.0201,-0.0175,-0.0143,-0.0144,-0.013,-0.0106,-0.0129,-0.0095,-0.0092,-0.0089,-0.0058,-0.0051,-0.0121,-0.0121,-0.0121,-0.012,0,-0.0342,-0.0352,-0.0357,-0.036,-0.0354,-0.0358,-0.0336,-0.0327,-0.0314,-0.0292,-0.0264,-0.0226,-0.0194,-0.018,-0.0163,-0.013,-0.0119,-0.0105,-0.009,-0.0089,-0.0056,-0.0049,-0.0123,-0.0123,-0.0122,-0.0122,0,0,-0.0365,-0.0374,-0.0378,-0.0389,-0.0377,-0.0377,-0.0367,-0.035,-0.0344,-0.0312,-0.0295,-0.0252,-0.0228,-0.0207,-0.0175,-0.0137,-0.0099,-0.0118,-0.0115,-0.0091,-0.0013,-0.0018,-0.0011,-0.0078,-0.0077,-0.0076,0.0001,0,-0.039,-0.042,-0.0411,-0.0433,-0.0446,-0.0421,-0.0415,-0.0394,-0.0368,-0.0343,-0.0291,-0.0266,-0.0238,-0.0225,-0.0182,-0.0121,-0.0081,-0.0122,-0.0014,-0.0011,-0.0018,-0.0003,-0.0072,0.0006,0.0008,0.0009,0.001,0,-0.0416,-0.0435,-0.0467,-0.0478,-0.048,-0.0487,-0.0475,-0.0465,-0.0417,-0.0394,-0.035,-0.0308,-0.0249,-0.0228,-0.0118,-0.0146,-0.0086,-0.0035,-0.003,-0.0019,-0.0003,0.0007,0.0023,0.0022,0.0021,0.002,0.0019,0,-0.0448,-0.0472,-0.0504,-0.0508,-0.0514,-0.0522,-0.052,-0.0486,-0.0478,-0.0426,-0.0411,-0.0332,-0.0294,-0.0207,-0.0105,-0.0111,0.0019,0.0027,0.0082,0.0082,0.0078,0.0075,0.0108,0.0108,0.0108,0.0108,0.0107,0,-0.0476,-0.0502,-0.0527,-0.0546,-0.0582,-0.0566,-0.0585,-0.0565,-0.0532,-0.0518,-0.0445,-0.041,-0.0287,-0.0198,-0.0108,0.0008,0.002,0.0083,0.0105,0.0061,0.0056,0.0083,0.0079,0.011,0.011,0.0109,0.0109,0,-0.0504,-0.052,-0.0563,-0.0589,-0.0602,-0.0628,-0.0641,-0.0645,-0.0608,-0.0586,-0.0572,-0.0464,-0.0344,-0.0218,-0.0065,-0.0001,0.0112,0.0151,0.009,0.0108,0.0147,0.014,0.0216,0.0217,0.0217,0.0217,0.0218,0,-0.0519,-0.0546,-0.0605,-0.0639,-0.0658,-0.0693,-0.0714,-0.0691,-0.0685,-0.0614,-0.06,-0.0483,-0.0399,-0.0181,-0.0057,0.0119,0.0142,0.019,0.0172,0.0145,0.016,0.0152,0.0145,0.0218,0.0219,0.0219,0.0219,0,-0.0547,-0.0575,-0.0611,-0.0687,-0.0729,-0.0766,-0.0787,-0.0786,-0.0744,-0.0715,-0.0604,-0.0482,-0.0342,-0.0175,-0.0037,0.0086,0.0152,0.0195,0.0195,0.0179,0.0149,0.0161,0.0154,0.022,0.022,0.022,0.022,0,-0.0567,-0.0605,-0.0662,-0.0721,-0.0781,-0.0814,-0.0823,-0.0795,-0.0775,-0.0682,-0.0647,-0.0483,-0.0383,-0.0192,-0.0066,0.0056,0.0081,0.0107,0.0112,0.0112,0.0056,0.0001,0.005,0,0,0,0,0,-0.0579,-0.0623,-0.0688,-0.0752,-0.0811,-0.0837,-0.0857,-0.0849,-0.0809,-0.0733,-0.0682,-0.0543,-0.0329,-0.0231,-0.0108,-0.0079,0.0081,0.0065,0.0108,0.0229,0.0227,0.0178,0,0,0,0,0,0,-0.0589,-0.0653,-0.0688,-0.076,-0.0804,-0.0856,-0.0867,-0.0841,-0.0784,-0.0725,-0.0604,-0.0527,-0.0316,-0.0393,-0.0107,-0.0071,-0.0031,0.0171,0.0173,0.023,0.0228,0.0227,0.0176,0,0,0,0,0]}]]